x

Santa Monica Basin - 33nm Wsw Of Santa Monica, Ca (46025) Wave Buoy

11:50am - Sun 20th Apr 2014 All times are PDT. -7 hours from GMT.

  • Sig Wave height 3.9ft
  • Swell Direction
  • Peak Period 15s
  • Average Period 6s
  • Wind
    4mph, 7mph gusts
  • Sea Temp 62°f
  • Air Temp 60°f
  • Sea Pressure 1018.2mb
  • Santa Monica Basin - 33nm Wsw Of Santa Monica, Ca
  • Santa Monica Basin - 33nm Wsw Of Santa Monica, Ca

More Historic Weather Station data

Upgrade to MSW Pro to gain access to the past 30 days of data for over 8000 Wavebouys and Weather Stations around the globe.

Join Pro

Comparision Forecast

View Surf forecast
   
Sun 04/20 11:50am 4ft 15s 6s 4 7 mph 1018.2mb 62f 60f
10:50am 4.5ft 16s 7s 4 7 mph 1018.5mb 61f 61f
9:50am 4ft 16s 7s 7 9 mph 1018mb 61f 60f
8:50am 4.5ft 7s 7s 4
mph
1017.7mb 60f 61f
7:50am 4.5ft 8s 7s 4 7 mph 1017.5mb 60f 59f
6:50am 5ft 9s 7s 7 9 mph 1016.9mb 60f 59f
5:50am 4.5ft 8s 7s 9 11 mph 1016.1mb 61f 59f
4:50am 4.5ft 8s 7s 9 11 mph 1016.1mb 61f 59f
3:50am 4ft 7s 7s 11
mph
1016.2mb 61f 59f
2:50am 4.5ft 7s 6s 4 7 mph 1016.4mb 61f 59f
1:50am 4.5ft 7s 6s 2 4 mph 1016.6mb 61f 59f
12:50am 5ft 7s 6s 9 11 mph 1016.7mb 61f 60f
Sat 04/19 11:50pm 4.5ft 7s 6s 7 9 mph 1016.7mb 61f 60f
10:50pm 4.5ft 6s 6s 4 7 mph 1016.3mb 61f 60f
9:50pm 4.5ft 15s 6s 2
mph
1016.1mb 61f 59f
8:50pm 4.5ft 6s 6s 4
mph
1015.4mb 61f 59f
7:50pm 4.5ft 15s 6s 4 7 mph 1015.1mb 61f 60f
6:50pm 4ft 15s 6s 9
mph
1015.1mb 62f 60f
5:50pm 3.5ft 15s 6s 9 11 mph 1015.5mb 62f 60f
4:50pm 3.5ft 15s 6s 11
mph
1015.4mb 62f 60f
3:50pm 3.5ft 16s 7s 9 11 mph 1015.7mb 62f 59f
2:50pm 3.5ft 15s 7s 9
mph
1015.7mb 62f 60f
1:50pm 3.5ft 11s 6s 7
mph
1016.1mb 62f 60f
12:50pm 3.5ft 11s 6s 7
mph
1016.4mb 61f 60f
11:50am 3.5ft 11s 6s 7 9 mph 1016.6mb 61f 59f
10:50am 3.5ft 11s 5s 9 11 mph 1016.6mb 60f 58f
9:50am 3.5ft 10s 6s 11 13 mph 1016.1mb 60f 58f
8:50am 3.5ft 11s 6s 11 13 mph 1015.5mb 60f 58f
7:50am 3.5ft 12s 6s 9
mph
1015.3mb 60f 58f
6:50am 3.5ft 11s 6s 11 13 mph 1014.7mb 60f 57f
5:50am 3.5ft 11s 6s 13
mph
1014.1mb 60f 57f
4:50am 3.5ft 11s 6s 9 11 mph 1013.8mb 60f 58f
3:50am 3.5ft 9s 6s 7 9 mph 1013.8mb 60f 58f
2:50am 4ft 11s 6s 4 7 mph 1013.1mb 60f 58f
1:50am 4ft 6s 6s 7 9 mph 1013.3mb 60f 59f
12:50am 4.5ft 6s 6s 7 9 mph 1013.5mb 60f 59f
Fri 04/18 11:50pm 4.5ft 11s 6s 7 9 mph 1013.7mb 60f 60f
10:50pm 4.5ft 11s 6s 7 9 mph 1013.5mb 61f 60f
9:50pm 4ft 10s 6s 11
mph
1013.2mb 61f 59f
8:50pm 3.5ft 9s 6s 11 13 mph 1012.8mb 61f 60f
7:50pm 4ft 12s 6s 9 11 mph 1012.4mb 61f 60f
6:50pm 3.5ft 11s 7s 9 11 mph 1012.1mb 62f 60f
5:50pm 4ft 12s 7s 9
mph
1012mb 62f 61f
4:50pm 3.5ft 13s 7s 9 11 mph 1012.1mb 62f 61f
3:50pm 3ft 11s 7s 7 9 mph 1012.3mb 63f 61f
2:50pm 3ft 12s 7s 7
mph
1012.6mb 62f 61f
1:50pm 3ft 12s 7s 4
mph
1013mb 61f 61f
12:50pm 3ft 12s 6s 2
mph
1013mb 61f 61f
11:50am 3ft 13s 6s 4
mph
1013.2mb 61f 60f
10:50am 2.5ft 12s 6s 4 7 mph 1013.2mb 60f 59f
9:50am 3.5ft 13s 6s 7 9 mph 1012.9mb 60f 59f
8:50am 3.5ft 11s 6s 7
mph
1012.6mb 60f 60f
7:50am 4.5ft 13s 8s 7
mph
1012.4mb 60f 59f
6:50am 3.5ft 13s 7s 7
mph
1011.8mb 60f 59f
5:50am 3.5ft 12s 6s 9 11 mph 1011.1mb 60f 59f
4:50am 3.5ft 12s 7s 9 11 mph 1011.1mb 60f 60f
3:50am 3.5ft 13s 7s 11 13 mph 1011.3mb 60f 60f
2:50am 3ft 13s 7s 11 13 mph 1010.9mb 60f 60f
1:50am 3.5ft 13s 7s 9
mph
1011.3mb 60f 60f
12:50am 3.5ft 13s 8s 7 9 mph 1011.7mb 61f 59f
Thu 04/17 11:50pm 3ft 14s 7s 7 9 mph 1011.8mb 61f 59f
10:50pm 3.5ft 13s 7s 4 7 mph 1012.1mb 61f 60f
9:50pm 3ft 13s 6s 4
mph
1012.4mb 61f 60f
8:50pm 3ft 12s 7s 4
mph
1011.7mb 61f 60f
7:50pm 3ft 13s 7s 7 9 mph 1011.2mb 61f 60f
6:50pm 3ft 14s 7s 2 4 mph 1010.8mb 61f 59f
5:50pm 3ft 11s 7s 2 4 mph 1010.8mb 61f 60f
4:50pm 3ft 14s 7s 4 7 mph 1010.8mb 61f 60f
3:50pm 3.5ft 14s 8s 9
mph
1011.2mb 61f 60f
2:50pm 3.5ft 11s 7s 7 9 mph 1011.8mb 61f 60f
1:50pm 3.5ft 12s 7s 4 7 mph 1011.9mb 60f 60f
12:50pm 3.5ft 10s 6s 4 7 mph 1012.2mb 60f 59f
11:50am 3ft 14s 6s 7 9 mph 1012.7mb 60f 59f
10:50am 3ft 13s 6s 9 11 mph 1012.7mb 60f 60f
9:50am 3ft 14s 6s 11 13 mph 1012.2mb 60f 59f
8:50am 3ft 14s 6s 13 16 mph 1011.6mb 60f 59f
7:50am 3.5ft 12s 6s 11 13 mph 1011.3mb 60f 59f
6:50am 3.5ft 6s 7s 11 13 mph 1010.8mb 60f 58f
4:50am 3.5ft 14s 7s 11 13 mph 1010.7mb 60f 58f
3:50am 3.5ft 11s 6s 13 16 mph 1010.4mb 60f 58f
2:50am 3.5ft 11s 6s 11 13 mph 1010.3mb 60f 59f
1:50am 3ft 14s 6s 13 18 mph 1010.3mb 60f 58f
12:50am 3.5ft 9s 7s 13 18 mph 1010.5mb 60f 57f
Wed 04/16 11:50pm 3.5ft 15s 7s 9 13 mph 1010.6mb 60f 57f
10:50pm 3.5ft 12s 6s 9 13 mph 1010.4mb 61f 57f
9:50pm 3.5ft 12s 6s 7
mph
1010.3mb 61f 58f
8:50pm 3.5ft 12s 6s 4
mph
1009.9mb 61f 58f